Regional Weather Roundup
Issued by NWS Newport/Morehead, NC

Current Version | Previous Version | Graphics & Text | Print | Product List | Glossary On
Versions: 1 2 3 4 5 6 7 8 9 10 11 12 13 14 15 16 17 18 19 20 21 22 23 24 25 26 27 28 29 30 31 32 33 34 35 36 37 38 39 40 41 42 43 44 45 46 47 48 49 50
000 ASUS42 KMHX 231613 RWRMHX WEATHER ROUNDUP FOR EASTERN NORTH CAROLINA NATIONAL WEATHER SERVICE NEWPORT/MOREHEAD CITY NC 1100 AM EST MON JAN 23 2017 NOTE: "FAIR" INDICATES FEW OR NO CLOUDS BELOW 12,000 FEET WITH NO SIGNIFICANT WEATHER AND/OR OBSTRUCTIONS TO VISIBILITY NCZ015>017-031-032-045>047-102-103-231700- NORTH COAST CITY SKY/WX TMP DP RH WIND PRES REMARKS EDENTON MOSUNNY 62 56 83 CALM 29.30S ELIZABETH CITY CLOUDY 60 58 92 SW14 29.28S KITTY HAWK NOT AVBL MANTEO CLOUDY 58 57 98 SW9 29.29F $$ NCZ045>047-081-094-103-104-231700- CENTRAL COAST CITY SKY/WX TMP DP RH WIND PRES REMARKS FRISCO CLOUDY 62 54 74 SW14G21 29.32S HAZE $$ NCZ095-097-098-100-101-231700- SOUTHERN COAST CITY SKY/WX TMP DP RH WIND PRES REMARKS BEAUFORT MOSUNNY 60 51 72 W10 29.32F CEDAR ISLAND NOT AVBL JACKSONVILLE SUNNY 62 50 64 SW12G18 29.30F PINEY ISLAND PTSUNNY N/A N/A N/A SW13 29.32F WILMINGTON SUNNY 62 50 64 SW10 29.30F $$ NCZ011>013-027>030-043-044-078>080-089-090>093-098-231700- COASTAL PLAIN CITY SKY/WX TMP DP RH WIND PRES REMARKS AHOSKIE N/A 59 55 87 SW3 29.28F CLINTON SUNNY 60 49 66 SW12 29.32S ELIZABETHTOWN SUNNY 61 49 65 SW9 29.31S GOLDSBORO PTSUNNY 58 53 80 SW12 29.28S GREENVILLE SUNNY 61 52 72 SW10G16 29.35S HAVELOCK MOSUNNY 62 50 64 SW15 29.32F KENANSVILLE SUNNY 63 48 59 SW7G17 29.30F KINSTON SUNNY 61 50 67 SW8G16 29.30F NEW BERN SUNNY 62 51 67 SW9 29.31F RICHLANDS SUNNY 63 50 62 SW8 29.31F ROCKY MOUNT SUNNY 58 50 75 SW13 29.29S WASHINGTON SUNNY 62 51 66 SW13 N/A WHITEVILLE MOSUNNY 61 49 63 S7 29.30F $$ AMZ130-135-150-152-154-156-158-170-250-252-270-ANZ085-086-088-633-658-670-231700- MARINE OBSERVATIONS STATION/POSITION TIME TEMP WIND PRES WAVE SWELL AIR SEA DIR/SP/G HT/PER HT/PER (UTC) (F) (DEG/KT/KT) (MB) (FT/S) (FT/S) CHESAPEAKE LIGHT NOT AVBL 64 E VA BEACH 1550 60 56 210/ 21/ 27 990.7 9/ 9 5/ 9 DUCK 1536 57 46 210/ 13/ 15 991.0 2 E DUCK 1530 46 N/A 5/14 2/14 OREGON INLET 1536 52 50 210/ 13/ 15 992.0 13E OREGON INLT NOT AVBL HATTERAS CG 1548 230/ 11/ 17 992.5 DIAMOND BUOY 1550 66 76 230/ 23/ 29 992.5 7/11 5/11 CAPE LOOKOUT 1500 58 240/ 13/ 15 993.2 BEAUFORT LAB 1536 58 52 250/ 8/ 13 992.1 30 SE NEW RVR IN 1508 61 69 250/ 12/ 17 993.6 30 SE NEW RVR IN 1543 69 N/A 9/11 3/11 27 SE WRIGHTSVLE 1508 61 66 260/ 10/ 14 991.2 5 SE WRIGHTSVLE 1508 56 55 240/ 8/ 12 993.0 225 S CAPE HAT 1550 70 71 180/ 12/ 16 995.2 15/11 15/11 41 SE CHARLESTON 1450 63 67 220/ 17/ 21 992.6 8/10 7/10 $$

USA.gov is the U.S. government's official web portal to all federal, state and local government web resources and services.